Skip Page Navigation
NASA JPL Caltech
NASA Logo - Jet Propulsion Laboratory + View the NASA Portal
+ Center for Near-Earth Object Studies
JPL Home Earth Solar System Stars & Galaxies Technology
JPL Solar System Dynamics
BODIES ORBITS EPHEMERIDES TOOLS PHYSICAL DATA DISCOVERY FAQ SITE MAP
IMPORTANT: The SSD Announcement email list is now available. Major changes are coming in the near future, including possible hostname and/or URL changes. To be notified of such changes, subscribe to this email list.

Please visit this page for more details.


JPL Small-Body Database Browser
Search: [ help ]  
344743 (2003 UA233)
Classification: Main-belt Asteroid          SPK-ID: 2344743
Ephemeris | Orbit Diagram | Orbital Elements | Mission Design | Physical Parameters | Discovery Circumstances | Close-Approach Data ]

[ show orbit diagram ]
Orbital Elements at Epoch 2458600.5 (2019-Apr-27.0) TDB
Reference: JPL 9 (heliocentric ecliptic J2000)
 Element Value Uncertainty (1-sigma)   Units 
e .2146270183900551 9.2041e-08  
a 2.676051280255281 2.9888e-08 au
q 2.1016983729152 2.4566e-07 au
i 6.898629002321827 1.1354e-05 deg
node 16.57187199592295 4.8603e-05 deg
peri 308.1826855815625 5.3484e-05 deg
M 240.3893913628143 2.1859e-05 deg
tp 2459131.760190309857
(2020-Oct-09.26019031)
0.0001001 TDB
period 1598.96911060521
4.38
2.6787e-05
7.334e-08
d
yr
n .2251450622856247 3.7718e-09 deg/d
Q 3.250404187595362 3.6302e-08 au
  Orbit Determination Parameters
   # obs. used (total)      161  
   data-arc span      5674 days (15.53 yr)  
   first obs. used      2003-09-28  
   last obs. used      2019-04-11  
   planetary ephem.      DE431  
   SB-pert. ephem.      SB431-N16  
   condition code      0  
   norm. resid. RMS      .75885  
   source      ORB  
   producer      Otto Matic  
   solution date      2019-Jul-13 17:59:25  

Additional Information
 Earth MOID = 1.09771 au 
 Jupiter MOID = 2.12721 au 
 T_jup = 3.335 
[ show covariance matrix ]

Ephemeris | Orbit Diagram | Orbital Elements | Mission Design | Physical Parameters | Discovery Circumstances | Close-Approach Data ]

Physical Parameter Table
Parameter Symbol Value Units Sigma Reference Notes
absolute magnitude H 16.7   n/a MPO434169  

344743 (2003 UA233)          Discovered 2003-Oct-24 by LINEAR at Socorro
Reference: 20121128/Numbers.arcLast Updated: 2012-12-03

[ show close-approach data ]
Ephemeris | Orbit Diagram | Orbital Elements | Mission Design | Physical Parameters | Discovery Circumstances | Close-Approach Data ]
ABOUT SSD CREDITS/AWARDS PRIVACY/COPYRIGHT GLOSSARY LINKS
FirstGov 2019-Dec-11 23:09 UT
(server date/time)  
NASA Home Page
Site Manager:   Ryan S. Park
Webmaster  Alan B. Chamberlin